{"data":{"norad_id":58215,"intl_designator":"2023-170K","name":"STARLINK-30851","alt_names":[],"object_type":"PAYLOAD","status":"ACTIVE","operator":null,"country":"US","launch_date":"2023-11-03","launch_site_code":"AFETR","launch_vehicle":null,"mission":null,"orbit_class":"UNKNOWN","rcs_meters":null,"size_class":null,"mass_kg":null,"dimensions":null,"purposes":["comms"],"wikipedia_slug":null,"has_3d_model":false,"image_url":null,"decayed_at":null,"tle_current":{"epoch":"2026-09-19T04:16:10.062336Z","epoch_age_seconds":257936,"freshness":"STALE","line1":"1 58215U 23170K   26262.17789424  .00001081  00000+0  48804-4 0  9991","line2":"2 58215  43.0031 181.2772 0001190 275.3245  84.7471 15.27573184159897","mean_motion":15.27573184,"eccentricity":0.000119,"inclination_deg":43.0031,"raan_deg":181.2772,"arg_perigee_deg":275.3245,"mean_anomaly_deg":84.7471,"bstar":4.8804e-5,"rev_number":15989,"period_min":94.267169329938,"perigee_km":482.25302209741,"apogee_km":483.88598924576,"semimajor_km":6861.2065056716,"source":"CELESTRAK","updated_at":"2026-09-21T09:00:33.832945Z"}}}